Regional Weather Roundup
Issued by NWS

Home | Current Version | Previous Version | Graphics & Text | Print | Product List | Glossary On
Versions: 1 2 3 4 5 6 7 8 9 10 11 12 13 14 15 16 17 18 19 20 21 22 23 24 25 26 27 28 29 30 31 32 33 34 35 36 37 38 39 40 41 42 43 44 45 46 47 48 49 50
000
ASUS45 KSLC 280310
RWRUT

UTAH REGIONAL WEATHER ROUNDUP
NATIONAL WEATHER SERVICE SALT LAKE CITY UT
800 PM MST FRI FEB 27 2015

UTZ001>011-023>025-280400-

NORTHERN UTAH

CITY           SKY/WX    TMP DP  RH WIND       PRES   REMARKS
BRIGHAM CITY   PTCLDY    34  29  81 NW6       29.72F WCI  29
HILL AFB       PTCLDY    34  21  59 E8        29.70S WCI  27
LOGAN          CLOUDY    33  28  81 CALM      29.73S
OGDEN          PTCLDY    35  22  58 S5        29.70S WCI  31
PROVO AIRPORT  NOT AVBL
SALT LAKE CITY PTCLDY    36  26  67 SE6       29.70S WCI  31
VERNAL         MOCLDY    30  14  51 W5        29.75S WCI  25
WENDOVER       CLOUDY    43  23  45 N5        29.67R
HEBER CITY     MOCLDY    28  21  74 E5        29.70S WCI  23
WEST JORDAN    CLEAR     32  27  80 CALM      29.71S

$$

UTZ012>022-026-027-280400-

SOUTHERN/CENTRAL UTAH

CITY           SKY/WX    TMP DP  RH WIND       PRES   REMARKS
BLANDING       MOCLDY    28  28  99 N3        29.84S
BRYCE CANYON   FOG       17  15  92 S5        29.71R VSB 1   WCI  10
CEDAR CITY     PTCLDY    34  24  67 S6        29.65R WCI  29
DELTA          MOCLDY    36  22  58 NE8       29.67S WCI  29
HANKSVILLE     MOCLDY    36  30  80 CALM      29.75R
MILFORD        PTCLDY    32  14  47 CALM      29.64S
MOAB/CYNLANDS  MOCLDY    38  25  59 E6        29.73R WCI  33
PRICE          MOCLDY    31  23  72 CALM      29.73R
ST GEORGE      PTCLDY    52  30  43 SE5       29.64S
KANAB          PTCLDY    36  32  87 NW9       29.74R WCI  29

$$

REGIONAL REPORTS     COLORADO/ARIZONA

CITY           SKY/WX    TMP DP  RH WIND       PRES   REMARKS
CRAIG, CO      CLEAR     24  13  62 CALM      29.76R
GRAND JUNCTION CLEAR     30  24  78 SE9       29.76R WCI  22
RIFLE          PTCLDY    29  21  72 CALM      29.77R
MONTROSE       PTCLDY    26  22  84 SE6       29.79R WCI  19
CORTEZ         CLOUDY    30  28  92 S3        29.78R
PAGE, AZ       PTCLDY    40  34  79 N5        29.72R
GRAND CANYON   CLOUDY    34  31  88 CALM      29.72S
KINGMAN        CLOUDY    51  30  44 S8        29.64S
FLAGSTAFF      CLOUDY    38  23  55 SW8       29.73R WCI  32

$$

REGIONAL REPORTS    NEVADA/IDAHO/WYOMING

CITY           SKY/WX    TMP DP  RH WIND       PRES   REMARKS
LAS VEGAS, NV  MOCLDY    62  25  24 S6        29.52F
ELY            MOCLDY    30  24  78 SW10      29.63S WCI  21
ELKO           CLOUDY    37  27  67 W3        29.60S
POCATELLO, ID  CLEAR     29  23  78 NE7       29.73S WCI  22
BURLEY         CLOUDY    37  26  64 E12       29.69R WCI  29
EVANSTON, WY   PTCLDY    26  18  71 E3        29.70R
ROCK SPRINGS   MOCLDY    23  15  71 S6        29.72S WCI  16

$$



USA.gov is the U.S. government's official web portal to all federal, state and local government web resources and services.